Regional Weather Roundup
Issued by NWS

Home | Current Version | Previous Version | Text Only | Print | Product List | Glossary On
Versions: 1 2 3 4 5 6 7 8 9 10 11 12 13 14 15 16 17 18 19 20 21 22 23 24 25 26 27 28 29 30 31 32 33 34 35 36 37 38 39 40 41 42 43 44 45 46 47 48 49 50
000
ASUS43 KLOT 232306
RWRIL

ILLINOIS REGIONAL WEATHER ROUNDUP
NATIONAL WEATHER SERVICE CHICAGO/ROMEOVILLE IL
600 PM CDT WED JUL 23 2014

NOTE: "FAIR" INDICATES FEW OR NO CLOUDS BELOW 12,000 FEET WITH NO
SIGNIFICANT WEATHER AND/OR OBSTRUCTIONS TO VISIBILITY.

* THESE STATIONS ARE NOT UNDER NWS QUALITY CONTROL. THEY ALSO MAY NOT
  REPORT WEATHER SUCH AS PRECIPITATION OR FOG.

ILZ001-002-007-009-015-016-024-240000-
NORTHWEST ILLINOIS

CITY           SKY/WX    TMP DP  RH WIND       PRES   REMARKS
MOLINE         PTSUNNY   77  54  44 N8        30.12F
STERLING*      MOSUNNY   75  55  50 NE8       30.13F
SAVANNA*       SUNNY     79  53  40 N10       30.13F
$$

ILZ003-004-008-010-011-017-018-240000-
NORTH CENTRAL ILLINOIS

CITY           SKY/WX    TMP DP  RH WIND       PRES   REMARKS
ROCKFORD       MOSUNNY   77  53  43 NE17      30.14F
FREEPORT*      MOSUNNY   72  55  55 N7        30.16F
ROCHELLE*      MOSUNNY   75  52  44 N12G18    30.13F
DE KALB*       PTSUNNY   73  55  52 N13       30.14S
PERU*          MOSUNNY   77  55  47 N14       30.12S
$$

ILZ005-006-012>014-019>023-240000-
NORTHEAST ILLINOIS

CITY           SKY/WX    TMP DP  RH WIND       PRES   REMARKS
CHICAGO-OHARE  MOSUNNY   68  51  54 NE18G29   30.15R
CHICAGO-MIDWAY MOSUNNY   69  54  58 NE21      30.14R
AURORA         MOSUNNY   73  55  53 NE13      30.12R
LANSING*       SUNNY     66  52  60 N18G25    30.14R
JOLIET*        SUNNY     72  52  49 NE12G21   30.13R
WAUKEGAN       SUNNY     64  51  62 N15G25    30.15S
DUPAGE AIRPORT MOSUNNY   72  56  57 NE13      30.13R
KANKAKEE*      SUNNY     70  53  54 NE13G21   30.12S
WHEELING       SUNNY     67  54  63 NE18G24   30.17R
MORRIS*        PTSUNNY   74  54  49 NE5       30.11S
ROMEOVILLE*    SUNNY     71  51  50 NE18G24   30.12S
NORTHERLY ISL    N/A     64  55  72 N14         N/A
$$

LMZ740>746-240000-
SOUTHERN LAKE MICHIGAN

STATION/POSITION SKY/WX   TEMP    WIND        PRES    VSBY  WAVE
                          AIR SEA DIR/SP/G                  HT/PER
                          (F)     (DEG/KT/KT) (MB)    (MI)  (FT/S)
SOUTHERN BUOY              61 60  350/ 21/ 25 1019.9F         6/ 6
WAUKEGAN HARBOR            61      20/ 20/ 22 1022.0S
HARRISON CRIB              61     360/ 22/ 25   N/A
BURNHAM HARBOR             63     350/ 11/ 18   N/A
CALUMET HARBOR             65     350/ 12/ 18 1019.6R
MICHIGAN CITY              65     350/ 27/ 32   N/A
$$

ILZ025>027-034>036-040-047-049-050-058-095>099-240000-
WEST-CENTRAL ILLINOIS

CITY           SKY/WX    TMP DP  RH WIND       PRES   REMARKS
QUINCY         SUNNY     78  58  49 N15       30.10S
GALESBURG*     PTSUNNY   78  58  51 N12G17    30.12F
MACOMB*        SUNNY     76  58  52 NE10G16   30.13S
JACKSONVILLE*  SUNNY     79  61  53 N9        30.10S HX  80
PITTSFIELD*    PTSUNNY   80  60  50 N9        30.10S HX  81
$$

ILZ028>032-037-038-041>044-048-051>054-059>061-240000-
CENTRAL ILLINOIS

CITY           SKY/WX    TMP DP  RH WIND       PRES   REMARKS
PONTIAC        SUNNY     75  54  46 NE12G17   30.10F
BLOOMINGTON    MOSUNNY   77  55  46 N15       30.12S
PEORIA         PTSUNNY   80  56  43 NE8       30.10F HX  80
LACON*         SUNNY     76  56  48 N6        30.11R
LINCOLN*       SUNNY     77  57  51 NE9       30.07S
SPRINGFIELD    MOSUNNY   79  59  50 N10G20    30.09S HX  80
TAYLORVILLE    MOSUNNY   75  59  57 N14G20    30.08S
$$

ILZ033-039-045-046-055>057-062-063-240000-
EAST-CENTRAL ILLINOIS

CITY           SKY/WX    TMP DP  RH WIND       PRES   REMARKS
CHAMPAIGN      SUNNY     74  54  49 N24       30.08F
RANTOUL*       SUNNY     75  48  38 NE18G24   30.11S
MATTOON        SUNNY     75  57  53 N18G24    30.06R
PARIS*         SUNNY     74  58  55 N8G22     30.07R
$$

ILZ079-100>102-240000-
SOUTHWEST ILLINOIS

CITY           SKY/WX    TMP DP  RH WIND       PRES   REMARKS
ALTON          MOSUNNY   79  68  69 N12       30.06S HX  81
BELLEVILLE     MOSUNNY   82  67  60 N15       30.02F HX  85
CAHOKIA*       SUNNY     83  65  54 NE16      30.03S HX  85
SPARTA*        CLOUDY    79  70  73 N7        30.03S HX  81
$$

ILZ064>066-069>071-074>076-080>082-084>086-088>090-092>094-240000-
SOUTH-CENTRAL ILLINOIS

CITY           SKY/WX    TMP DP  RH WIND       PRES   REMARKS
CARBONDALE     PTSUNNY   80  72  76 N10G17    30.00S HX  84
CAIRO*         PTSUNNY   81  69  67 N5        29.99F HX  84
MARION         CLOUDY    79  73  83 N12       30.01S HX  82
MT. VERNON     PTSUNNY   79  70  73 N5        30.02F HX  81
CENTRALIA*     MOSUNNY   79  64  60 N8G17     30.03S HX  80
SALEM*         PTSUNNY   81  67  63 N12       30.03S HX  83
METROPOLIS*    PTSUNNY   80  66  62 CALM      29.99S HX  82
$$

ILZ067-068-072-073-078-083-087-091-240000-
SOUTHEAST ILLINOIS

CITY           SKY/WX    TMP DP  RH WIND       PRES   REMARKS
FLORA*         SUNNY     77  66  68 N10       30.02F
FAIRFIELD*     PTSUNNY   79  73  83 N5        30.01F HX  82
HARRISBURG*    CLOUDY    78  72  82 N8        30.01S HX  80
ROBINSON*      CLOUDY    78  70  76 N6        30.04R HX  80
CARMI*         CLOUDY    75  73  94 N10G20    30.00S FOG
$$

ABBREVIATIONS USED IN REMARKS
   TC - TEMPERATURE IN CELSIUS
  WCI - WIND CHILL INDEX
   HX - HEAT INDEX
  VSB - VISIBILITY
$$




USA.gov is the U.S. government's official web portal to all federal, state and local government web resources and services.